Location: Byszew
(52.1813°N, 19.2693°E)
Time: 01:39:42
(UTC+00:00)

Envisat - Pass Details

Date: 03 February 2022
Orbit: 764 x 765 km, 98.2° (Epoch: 28 May)

Event Time Altitude Azimuth Distance (km) Brightness Sun altitude
Rises 04:18:38 0° 12° (NNE) 3,244 6.4 -18.8°
Reaches altitude 10° 04:20:59 10° 8° (N) 2,314 5.5 -18.4°
Maximum altitude 04:25:58 56° 291° (WNW) 907 3.0 -17.7°
Drops below altitude 10° 04:30:54 10° 214° (SW) 2,299 5.2 -16.9°
Sets 04:33:14 0° 210° (SSW) 3,221 6.0 -16.6°
